Weather History for Des Moines, IA

Change the Weather History Date:

Tuesday, March 26, 2013

  Actual Average Record
Temperature  
Mean Temperature 31 °F 44 °F  
Max Temperature 38 °F 54 °F 87 °F (1991)
Min Temperature 23 °F 33 °F -1 °F (1964)
Degree Days  
Heating Degree Days 34 21  
Month to date heating degree days 875 695  
Since 1 July heating degree days 5232 5526  
Cooling Degree Days 0 0  
Month to date cooling degree days 0 0  
Year to date cooling degree days 0 0  
Moisture  
Dew Point 19 °F    
Average Humidity 64    
Maximum Humidity 75    
Minimum Humidity 52    
Precipitation  
Precipitation 0.00 in 0.08 in 1.43 in (1882)
Month to date precipitation 1.54 1.85  
Year to date precipitation 4.39 4.13  
Snow  
Snow 0.00 in 0.10 in 7.30 in (1983)
Month to date snowfall 9.6 4.5  
Since 1 July snowfall 48.3 32.8  
Snow Depth 2.00 in    
Sea Level Pressure  
Sea Level Pressure 30.34 in    
Wind  
Wind Speed 9 mph (West)    
Max Wind Speed 17 mph    
Max Gust Speed 20 mph    
Visibility 10 miles    
Events      
T = Trace of Precipitation, MM = Missing Value Source: NWS Daily Summary

Daily Weather History Graph

Daily Weather History Graph

Search for Another Location

Airport:

Trip Planner

Search our weather history database for the weather conditions in past years. The results will help you decide how hot, cold, wet, or windy it might be!

Date:

Astronomy

Mar. 26, 2013 Rise Set
Actual Time 7:07 AM CDT 7:33 PM CDT
Civil Twilight 6:39 AM CDT 8:01 PM CDT
Nautical Twilight 6:06 AM CDT 8:34 PM CDT
Astronomical Twilight 5:33 AM CDT 9:07 PM CDT
Moon 7:11 PM CDT (3/26) 6:24 AM CDT (3/26)
Length of Visible Light 13h 21m
Length of Day
12h 26m
Waxing Gibbous, 99% of the Moon is Illuminated
Mar 26
Waxing Gibbous
Mar 27
Full
Apr 2
Last Quarter
Apr 10
New
Apr 18
First Quarter

Hourly Weather History & Observations

Time (CDT) Temp. Windchill Dew Point Humidity Pressure Visibility Wind Dir Wind Speed Gust Speed Precip Events Conditions
12:54 AM 30.9 °F 23.5 °F 21.0 °F 67% 30.30 in 10.0 mi NW 8.1 mph - N/A   Overcast
1:54 AM 28.9 °F 19.8 °F 19.9 °F 69% 30.31 in 10.0 mi NW 10.4 mph - N/A   Mostly Cloudy
2:54 AM 27.0 °F 17.3 °F 19.0 °F 72% 30.31 in 10.0 mi NNW 10.4 mph - N/A   Scattered Clouds
3:54 AM 26.1 °F 15.0 °F 18.0 °F 71% 30.31 in 10.0 mi NW 12.7 mph - N/A   Partly Cloudy
4:54 AM 25.0 °F 13.1 °F 17.1 °F 72% 30.32 in 10.0 mi NW 13.8 mph - N/A   Clear
5:54 AM 24.1 °F 11.5 °F 17.1 °F 75% 30.32 in 10.0 mi NW 15.0 mph - N/A   Clear
6:54 AM 23.0 °F 12.4 °F 16.0 °F 74% 30.34 in 10.0 mi NW 10.4 mph - N/A   Partly Cloudy
7:54 AM 24.1 °F 13.7 °F 16.0 °F 71% 30.36 in 10.0 mi NW 10.4 mph - N/A   Clear
8:54 AM 25.0 °F 13.6 °F 16.0 °F 69% 30.37 in 10.0 mi NW 12.7 mph - N/A   Clear
9:54 AM 28.0 °F 17.0 °F 17.1 °F 63% 30.38 in 10.0 mi NW 13.8 mph - N/A   Clear
10:54 AM 30.9 °F 21.7 °F 18.0 °F 59% 30.38 in 10.0 mi NW 11.5 mph - N/A   Clear
11:54 AM 33.1 °F 25.5 °F 19.0 °F 56% 30.38 in 10.0 mi WNW 9.2 mph - N/A   Partly Cloudy
12:54 PM 34.0 °F 26.0 °F 19.0 °F 54% 30.38 in 10.0 mi West 10.4 mph - N/A   Partly Cloudy
1:54 PM 34.0 °F 27.2 °F 19.0 °F 54% 30.36 in 10.0 mi West 8.1 mph - N/A   Partly Cloudy
2:54 PM 36.0 °F 29.0 °F 19.9 °F 52% 30.35 in 10.0 mi WSW 9.2 mph - N/A   Partly Cloudy
3:54 PM 37.0 °F 33.3 °F 21.0 °F 52% 30.33 in 10.0 mi Variable 4.6 mph - N/A   Partly Cloudy
4:54 PM 37.0 °F 34.5 °F 21.0 °F 52% 30.32 in 10.0 mi West 3.5 mph - N/A   Partly Cloudy
5:54 PM 36.0 °F 31.1 °F 19.9 °F 52% 30.32 in 10.0 mi SSW 5.8 mph - N/A   Partly Cloudy
6:54 PM 35.1 °F 29.3 °F 19.9 °F 54% 30.33 in 10.0 mi SW 6.9 mph - N/A   Partly Cloudy
7:54 PM 33.1 °F 27.7 °F 19.9 °F 59% 30.32 in 10.0 mi SW 5.8 mph - N/A   Partly Cloudy
8:54 PM 33.1 °F 30.0 °F 19.9 °F 59% 30.32 in 10.0 mi South 3.5 mph - N/A   Partly Cloudy
9:54 PM 32.0 °F 26.4 °F 19.9 °F 61% 30.33 in 10.0 mi SSE 5.8 mph - N/A   Partly Cloudy
10:54 PM 30.0 °F 25.2 °F 19.9 °F 66% 30.35 in 10.0 mi South 4.6 mph - N/A   Scattered Clouds
11:54 PM 28.9 °F 22.8 °F 19.0 °F 67% 30.36 in 10.0 mi South 5.8 mph - N/A   Mostly Cloudy